Location: Evergreen Manor
(41.4083°N, 81.4939°W)
Time: 13:56:54
(UTC+00:00)

Cosmos 2263 Rocket - Pass Details

Date: 11 December 2019
Orbit: 824 x 848 km, 71.0° (Epoch: 28 January)

Event Time Altitude Azimuth Distance (km) Brightness Sun altitude
Exits shadow 09:45:10 17° 171° (S) 1,995 4.2 -32.2°
Maximum altitude 09:49:09 43° 107° (ESE) 1,144 3.2 -31.5°
Drops below altitude 10° 09:54:23 10° 37° (NE) 2,431 4.9 -30.5°
Sets 09:56:54 0° 31° (NNE) 3,367 5.6 -30.0°
